| time (UTC) | temp F | wind direction | speed knots | gust knots | rain 1hr in | rain 24hr in | rain mn in | humidity % | barometer mb |
| 20260505221302 | 66 | 138 | 3.5 | 3.5 | 0.00 | 0.04 | 0.04 | 76 | 1005.3 |
| 20260505220800 | 66 | 175 | 1.7 | 4.3 | 0.00 | 0.04 | 0.04 | 78 | 1005.1 |
| 20260505220257 | 67 | 219 | 2.6 | 4.3 | 0.00 | 0.04 | 0.04 | 75 | 1005.0 |
| 20260505215755 | 67 | 66 | 0.9 | 0.9 | 0.00 | 0.04 | 0.04 | 75 | 1004.3 |
| 20260505215252 | 67 | 80 | 3.5 | 3.5 | 0.00 | 0.04 | 0.04 | 73 | 1004.5 |
| 20260505214750 | 67 | 213 | 0.0 | 3.5 | 0.00 | 0.04 | 0.04 | 75 | 1004.6 |
| 20260505214247 | 68 | 83 | 0.9 | 1.7 | 0.00 | 0.04 | 0.04 | 76 | 1004.6 |
| 20260505213744 | 67 | 261 | 1.7 | 4.3 | 0.00 | 0.04 | 0.04 | 75 | 1004.6 |
| 20260505213242 | 67 | 64 | 1.7 | 3.5 | 0.00 | 0.04 | 0.04 | 76 | 1004.3 |
| 20260505212737 | 68 | 89 | 2.6 | 2.6 | 0.00 | 0.04 | 0.04 | 75 | 1004.4 |
| 20260505212235 | 68 | 146 | 1.7 | 3.5 | 0.00 | 0.04 | 0.04 | 77 | 1004.2 |
| 20260505211732 | 68 | 153 | 1.7 | 3.5 | 0.00 | 0.04 | 0.04 | 77 | 1004.4 |
| 20260505211229 | 68 | 102 | 1.7 | 1.7 | 0.00 | 0.04 | 0.04 | 78 | 1004.2 |
| 20260505210725 | 67 | 173 | 0.0 | 1.7 | 0.00 | 0.04 | 0.04 | 80 | 1004.4 |
| 20260505210222 | 66 | 133 | 0.9 | 2.6 | 0.00 | 0.04 | 0.04 | 80 | 1004.4 |
| 20260505205720 | 66 | 49 | 0.0 | 2.6 | 0.00 | 0.04 | 0.04 | 82 | 1004.5 |
| 20260505205218 | 66 | 103 | 2.6 | 2.6 | 0.00 | 0.04 | 0.04 | 82 | 1004.5 |
| 20260505204714 | 65 | 148 | 1.7 | 2.6 | 0.00 | 0.04 | 0.04 | 83 | 1004.8 |
| 20260505204212 | 65 | 198 | 0.0 | 2.6 | 0.00 | 0.04 | 0.04 | 82 | 1004.8 |
| 20260505203709 | 64 | 19 | 1.7 | 1.7 | 0.00 | 0.04 | 0.04 | 88 | 1004.6 |
| 20260505203206 | 63 | 35 | 0.9 | 1.7 | 0.00 | 0.04 | 0.04 | 90 | 1004.5 |
| 20260505202701 | 62 | 22 | 2.6 | 3.5 | 0.00 | 0.04 | 0.04 | 89 | 1004.8 |
| 20260505202158 | 62 | 30 | 2.6 | 3.5 | 0.00 | 0.04 | 0.04 | 92 | 1005.0 |
| 20260505201654 | 61 | 106 | 0.9 | 1.7 | 0.00 | 0.04 | 0.04 | 94 | 1005.0 |
| 20260505201152 | 61 | 89 | 1.7 | 2.6 | 0.02 | 0.04 | 0.04 | 95 | 1004.9 |
| 20260505200650 | 61 | 51 | 1.7 | 5.2 | 0.02 | 0.04 | 0.04 | 94 | 1004.9 |
| 20260505200147 | 61 | 30 | 1.7 | 5.2 | 0.00 | 0.03 | 0.03 | 92 | 1005.0 |
| 20260505195642 | 61 | 349 | 1.7 | 6.1 | 0.02 | 0.03 | 0.03 | 92 | 1005.0 |
| 20260505195140 | 61 | 96 | 6.1 | 6.1 | 0.00 | 0.03 | 0.03 | 90 | 1005.5 |
| 20260505194637 | 61 | 340 | 1.7 | 8.7 | 0.09 | 0.03 | 0.03 | 89 | 1005.9 |
| 20260505194133 | 62 | 277 | 9.6 | 11.3 | 0.14 | 0.03 | 0.03 | 88 | 1006.1 |
| 20260505193630 | 66 | 80 | 6.1 | 15.6 | 0.00 | 0.00 | 0.00 | 76 | 1005.4 |
| 20260505193127 | 76 | 188 | 10.4 | 11.3 | 0.00 | 0.00 | 0.00 | 39 | 1003.8 |
| 20260505192626 | 76 | 264 | 5.2 | 8.7 | 0.00 | 0.00 | 0.00 | 38 | 1003.1 |
| 20260505192123 | 76 | 243 | 7.8 | 15.6 | 0.00 | 0.00 | 0.00 | 37 | 1002.7 |
| 20260505191621 | 76 | 261 | 8.7 | 14.8 | 0.00 | 0.00 | 0.00 | 38 | 1002.9 |
| 20260505191119 | 77 | 266 | 7.0 | 13.0 | 0.00 | 0.00 | 0.00 | 38 | 1002.7 |
| 20260505190614 | 77 | 218 | 11.3 | 16.5 | 0.00 | 0.00 | 0.00 | 37 | 1002.6 |
| 20260505190109 | 78 | 201 | 1.7 | 13.0 | 0.00 | 0.00 | 0.00 | 40 | 1002.9 |
| 20260505185607 | 78 | 166 | 8.7 | 18.2 | 0.00 | 0.00 | 0.00 | 38 | 1002.6 |
| 20260505185102 | 78 | 219 | 7.8 | 10.4 | 0.00 | 0.00 | 0.00 | 39 | 1002.9 |
| 20260505184559 | 77 | 257 | 7.0 | 20.0 | 0.00 | 0.00 | 0.00 | 39 | 1002.8 |
| 20260505184056 | 77 | 173 | 8.7 | 20.0 | 0.00 | 0.00 | 0.00 | 39 | 1003.1 |
| 20260505183553 | 77 | 181 | 6.1 | 14.8 | 0.00 | 0.00 | 0.00 | 42 | 1003.0 |
| 20260505183051 | 77 | 290 | 7.8 | 19.1 | 0.00 | 0.00 | 0.00 | 45 | 1003.1 |
| 20260505182541 | 77 | 318 | 5.2 | 11.3 | 0.00 | 0.00 | 0.00 | 48 | 1003.1 |
| 20260505182037 | 77 | 332 | 1.7 | 10.4 | 0.00 | 0.00 | 0.00 | 47 | 1003.4 |
| 20260505181534 | 77 | 247 | 1.7 | 7.8 | 0.00 | 0.00 | 0.00 | 47 | 1003.7 |
| 20260505181032 | 76 | 154 | 2.6 | 13.9 | 0.00 | 0.00 | 0.00 | 49 | 1003.7 |
| 20260505180527 | 76 | 259 | 3.5 | 13.0 | 0.00 | 0.00 | 0.00 | 48 | 1003.7 |
| 20260505180026 | 76 | 141 | 6.1 | 10.4 | 0.00 | 0.00 | 0.00 | 47 | 1004.0 |
| 20260505175526 | 76 | 214 | 3.5 | 13.0 | 0.00 | 0.00 | 0.00 | 46 | 1004.0 |
| 20260505175023 | 76 | 248 | 4.3 | 13.0 | 0.00 | 0.00 | 0.00 | 47 | 1003.9 |
| 20260505174520 | 76 | 272 | 8.7 | 16.5 | 0.00 | 0.00 | 0.00 | 47 | 1004.1 |
| 20260505174016 | 76 | 205 | 2.6 | 11.3 | 0.00 | 0.00 | 0.00 | 46 | 1004.4 |
| 20260505173513 | 76 | 331 | 1.7 | 9.6 | 0.00 | 0.00 | 0.00 | 47 | 1004.2 |
| 20260505173010 | 76 | 175 | 2.6 | 13.0 | 0.00 | 0.00 | 0.00 | 49 | 1004.2 |
| 20260505172508 | 75 | 250 | 5.2 | 13.9 | 0.00 | 0.00 | 0.00 | 47 | 1004.4 |
| 20260505172008 | 75 | 245 | 8.7 | 9.6 | 0.00 | 0.00 | 0.00 | 48 | 1004.1 |
| 20260505171504 | 75 | 242 | 5.2 | 11.3 | 0.00 | 0.00 | 0.00 | 47 | 1004.2 |
| 20260505171001 | 75 | 237 | 4.3 | 10.4 | 0.00 | 0.00 | 0.00 | 46 | 1004.2 |
| 20260505170458 | 75 | 324 | 1.7 | 13.0 | 0.00 | 0.00 | 0.00 | 47 | 1004.1 |
| 20260505165953 | 75 | 258 | 5.2 | 17.4 | 0.00 | 0.00 | 0.00 | 47 | 1004.1 |
| 20260505165450 | 76 | 184 | 0.9 | 8.7 | 0.00 | 0.00 | 0.00 | 46 | 1003.7 |
| 20260505164945 | 76 | 148 | 2.6 | 6.1 | 0.00 | 0.00 | 0.00 | 48 | 1003.8 |
| 20260505164442 | 76 | 222 | 3.5 | 5.2 | 0.00 | 0.00 | 0.00 | 45 | 1003.8 |
| 20260505163940 | 76 | 122 | 0.0 | 7.0 | 0.00 | 0.00 | 0.00 | 46 | 1003.7 |
| 20260505163438 | 76 | 225 | 3.5 | 7.0 | 0.00 | 0.00 | 0.00 | 46 | 1003.8 |
| 20260505162937 | 75 | 214 | 3.5 | 11.3 | 0.00 | 0.00 | 0.00 | 47 | 1004.0 |
| 20260505162433 | 75 | 272 | 4.3 | 14.8 | 0.00 | 0.00 | 0.00 | 47 | 1004.2 |
| 20260505161930 | 75 | 286 | 5.2 | 12.2 | 0.00 | 0.00 | 0.00 | 46 | 1004.2 |
| 20260505161426 | 75 | 247 | 3.5 | 15.6 | 0.00 | 0.00 | 0.00 | 46 | 1004.1 |
| 20260505160924 | 75 | 283 | 4.3 | 10.4 | 0.00 | 0.00 | 0.00 | 45 | 1004.3 |
| 20260505160422 | 76 | 222 | 11.3 | 15.6 | 0.00 | 0.00 | 0.00 | 45 | 1004.5 |
| 20260505152858 | 76 | 308 | 3.5 | 10.4 | 0.00 | 0.00 | 0.00 | 46 | 1004.4 |
| 20260505152355 | 75 | 220 | 12.2 | 20.9 | 0.00 | 0.00 | 0.00 | 46 | 1004.3 |
| 20260505151855 | 75 | 287 | 5.2 | 9.6 | 0.00 | 0.00 | 0.00 | 47 | 1004.5 |
| 20260505151352 | 76 | 188 | 7.8 | 12.2 | 0.00 | 0.00 | 0.00 | 46 | 1004.3 |
| 20260505150849 | 75 | 219 | 3.5 | 9.6 | 0.00 | 0.00 | 0.00 | 48 | 1004.5 |
| 20260505150347 | 74 | 202 | 3.5 | 18.2 | 0.00 | 0.00 | 0.00 | 47 | 1004.5 |
| 20260505140316 | 72 | 256 | 1.7 | 12.2 | 0.00 | 0.00 | 0.00 | 52 | 1004.6 |
| 20260505130240 | 66 | 106 | 1.7 | 7.8 | 0.00 | 0.00 | 0.00 | 67 | 1005.5 |
| 20260505124731 | 64 | 257 | 2.6 | 3.5 | 0.00 | 0.00 | 0.00 | 71 | 1005.7 |
| 20260505124227 | 63 | 155 | 0.0 | 3.5 | 0.00 | 0.00 | 0.00 | 73 | 1005.7 |
| 20260505123722 | 63 | 199 | 0.9 | 3.5 | 0.00 | 0.00 | 0.00 | 74 | 1005.7 |
| 20260505123220 | 62 | 222 | 3.5 | 5.2 | 0.00 | 0.00 | 0.00 | 73 | 1005.7 |
| 20260505122716 | 62 | 166 | 1.7 | 4.3 | 0.00 | 0.00 | 0.00 | 76 | 1005.7 |
| 20260505122214 | 61 | 88 | 0.9 | 1.7 | 0.00 | 0.00 | 0.00 | 79 | 1005.6 |
| 20260505121710 | 60 | 272 | 0.9 | 3.5 | 0.00 | 0.00 | 0.00 | 79 | 1005.7 |
| 20260505121207 | 60 | 163 | 1.7 | 3.5 | 0.00 | 0.00 | 0.00 | 80 | 1005.7 |
| 20260505120703 | 60 | 132 | 1.7 | 2.6 | 0.00 | 0.00 | 0.00 | 81 | 1005.8 |
| 20260505120159 | 59 | 146 | 0.9 | 2.6 | 0.00 | 0.00 | 0.00 | 81 | 1005.8 |
| 20260505115653 | 59 | 214 | 0.9 | 3.5 | 0.00 | 0.00 | 0.00 | 81 | 1005.4 |
| 20260505115151 | 59 | 103 | 1.7 | 2.6 | 0.00 | 0.00 | 0.00 | 81 | 1005.6 |
| 20260505114648 | 60 | 74 | 0.9 | 1.7 | 0.00 | 0.00 | 0.00 | 79 | 1005.1 |
| 20260505114144 | 60 | 155 | 1.7 | 4.3 | 0.00 | 0.00 | 0.00 | 77 | 1005.2 |
| 20260505113640 | 59 | 341 | 0.9 | 5.2 | 0.00 | 0.00 | 0.00 | 80 | 1005.6 |
| 20260505113137 | 59 | 260 | 1.7 | 4.3 | 0.00 | 0.00 | 0.00 | 81 | 1005.5 |
| 20260505112633 | 59 | 180 | 1.7 | 4.3 | 0.02 | 0.00 | 0.00 | 80 | 1005.4 |
| 20260505112132 | 58 | 238 | 0.0 | 2.6 | 0.02 | 0.00 | 0.00 | 81 | 1005.7 |
| 20260505111631 | 59 | 228 | 3.5 | 12.2 | 0.00 | 0.00 | 0.00 | 76 | 1005.9 |
| 20260505111127 | 58 | 131 | 2.6 | 3.5 | 0.00 | 0.00 | 0.00 | 73 | 1005.4 |
| 20260505110624 | 57 | 51 | 0.0 | 1.7 | 0.00 | 0.00 | 0.00 | 75 | 1005.6 |
| 20260505110121 | 57 | 24 | 0.0 | 1.7 | 0.00 | 0.00 | 0.00 | 76 | 1005.8 |
| 20260505102056 | 52 | 64 | 0.9 | 1.7 | 0.00 | 0.00 | 0.00 | 82 | 1005.6 |
| 20260505101555 | 53 | 56 | 0.0 | 1.7 | 0.00 | 0.00 | 0.00 | 81 | 1005.5 |
| 20260505101051 | 53 | 88 | 0.9 | 1.7 | 0.00 | 0.00 | 0.00 | 79 | 1005.3 |
| 20260505100548 | 54 | 65 | 1.7 | 2.6 | 0.00 | 0.00 | 0.00 | 78 | 1005.4 |
| 20260505100044 | 55 | 35 | 0.0 | 2.6 | 0.00 | 0.00 | 0.00 | 76 | 1005.3 |
| 20260505095541 | 55 | 89 | 0.0 | 1.7 | 0.00 | 0.00 | 0.00 | 76 | 1005.1 |
| 20260505095037 | 55 | 254 | 1.7 | 2.6 | 0.00 | 0.00 | 0.00 | 76 | 1005.2 |
| 20260505094534 | 55 | 331 | 0.9 | 0.9 | 0.00 | 0.00 | 0.00 | 77 | 1004.9 |
| 20260505094030 | 55 | 69 | 0.0 | 1.7 | 0.00 | 0.00 | 0.00 | 75 | 1004.8 |
| 20260505093527 | 56 | 249 | 0.0 | 1.7 | 0.00 | 0.00 | 0.00 | 74 | 1004.8 |
| 20260505093024 | 56 | 284 | 0.9 | 1.7 | 0.00 | 0.00 | 0.00 | 72 | 1004.7 |
| 20260505092521 | 56 | 303 | 0.0 | 0.9 | 0.00 | 0.00 | 0.00 | 73 | 1004.9 |
| 20260505092020 | 57 | 38 | 0.0 | 1.7 | 0.00 | 0.00 | 0.00 | 71 | 1004.8 |
| 20260505091516 | 57 | 285 | 1.7 | 1.7 | 0.00 | 0.00 | 0.00 | 70 | 1004.6 |
| 20260505091014 | 58 | 318 | 1.7 | 3.5 | 0.00 | 0.00 | 0.00 | 69 | 1004.5 |
| 20260505090512 | 57 | 343 | 0.9 | 3.5 | 0.00 | 0.00 | 0.00 | 70 | 1004.5 |
| 20260505090010 | 57 | 298 | 2.6 | 3.5 | 0.00 | 0.00 | 0.00 | 70 | 1004.6 |
| 20260505085508 | 57 | 320 | 1.7 | 2.6 | 0.00 | 0.00 | 0.00 | 70 | 1004.6 |
| 20260505085006 | 57 | 305 | 1.7 | 3.5 | 0.00 | 0.00 | 0.00 | 70 | 1004.7 |
| 20260505084503 | 57 | 347 | 0.9 | 2.6 | 0.00 | 0.00 | 0.00 | 69 | 1004.8 |
| 20260505084001 | 57 | 293 | 1.7 | 1.7 | 0.00 | 0.00 | 0.00 | 69 | 1004.5 |
| 20260505083458 | 57 | 317 | 0.9 | 1.7 | 0.00 | 0.00 | 0.00 | 69 | 1004.4 |
| 20260505082954 | 57 | 302 | 1.7 | 1.7 | 0.00 | 0.00 | 0.00 | 69 | 1004.7 |
| 20260505082450 | 57 | 300 | 1.7 | 1.7 | 0.00 | 0.00 | 0.00 | 68 | 1004.7 |
| 20260505081947 | 57 | 273 | 1.7 | 2.6 | 0.00 | 0.00 | 0.00 | 68 | 1004.5 |
| 20260505081444 | 58 | 274 | 0.9 | 2.6 | 0.00 | 0.00 | 0.00 | 67 | 1004.7 |
| 20260505080940 | 58 | 308 | 0.9 | 2.6 | 0.00 | 0.00 | 0.00 | 67 | 1004.5 |
| 20260505080436 | 58 | 311 | 1.7 | 1.7 | 0.00 | 0.00 | 0.00 | 67 | 1004.9 |
| 20260505075932 | 58 | 280 | 2.6 | 2.6 | 0.00 | 0.00 | 0.00 | 67 | 1004.8 |
| 20260505075429 | 58 | 321 | 1.7 | 1.7 | 0.00 | 0.00 | 0.00 | 66 | 1004.6 |
| 20260505074927 | 58 | 324 | 0.0 | 1.7 | 0.00 | 0.00 | 0.00 | 66 | 1004.7 |
| 20260505074424 | 59 | 291 | 0.9 | 1.7 | 0.00 | 0.00 | 0.00 | 66 | 1004.9 |
| 20260505073921 | 59 | 241 | 0.9 | 1.7 | 0.00 | 0.00 | 0.00 | 64 | 1004.8 |
| 20260505073419 | 60 | 243 | 0.0 | 1.7 | 0.00 | 0.00 | 0.00 | 62 | 1004.9 |
| 20260505072916 | 60 | 11 | 1.7 | 1.7 | 0.00 | 0.00 | 0.00 | 61 | 1004.7 |
| 20260505072411 | 60 | 318 | 0.9 | 0.9 | 0.00 | 0.00 | 0.00 | 62 | 1004.8 |
| 20260505071908 | 60 | 328 | 0.9 | 1.7 | 0.00 | 0.00 | 0.00 | 62 | 1004.8 |
| 20260505071404 | 60 | 302 | 0.9 | 1.7 | 0.00 | 0.00 | 0.00 | 62 | 1004.7 |
| 20260505070902 | 60 | 257 | 1.7 | 2.6 | 0.00 | 0.00 | 0.00 | 62 | 1004.8 |
| 20260505070358 | 60 | 126 | 0.0 | 1.7 | 0.00 | 0.00 | 0.00 | 61 | 1004.9 |
| 20260505065854 | 60 | 198 | 1.7 | 3.5 | 0.00 | 0.00 | 0.00 | 60 | 1004.6 |
| 20260505065351 | 60 | 310 | 0.0 | 1.7 | 0.00 | 0.00 | 0.00 | 61 | 1004.9 |
| 20260505064848 | 60 | 214 | 0.0 | 0.9 | 0.00 | 0.00 | 0.00 | 61 | 1004.9 |
| 20260505064345 | 60 | 123 | 0.0 | 2.6 | 0.00 | 0.00 | 0.00 | 60 | 1004.8 |
| 20260505063843 | 60 | 121 | 0.0 | 3.5 | 0.00 | 0.00 | 0.00 | 59 | 1005.0 |
| 20260505063339 | 60 | 254 | 1.7 | 1.7 | 0.00 | 0.00 | 0.00 | 59 | 1004.8 |
| 20260505062836 | 61 | 58 | 2.6 | 2.6 | 0.00 | 0.00 | 0.00 | 58 | 1004.8 |
| 20260505062333 | 62 | 198 | 0.9 | 3.5 | 0.00 | 0.00 | 0.00 | 56 | 1004.9 |
| 20260505061830 | 61 | 310 | 0.9 | 3.5 | 0.00 | 0.00 | 0.00 | 56 | 1005.0 |
| 20260505061328 | 61 | 1 | 0.9 | 3.5 | 0.00 | 0.00 | 0.00 | 57 | 1004.7 |
| 20260505060825 | 62 | 337 | 0.0 | 3.5 | 0.00 | 0.00 | 0.00 | 56 | 1004.7 |
| 20260505060322 | 62 | 88 | 0.9 | 5.2 | 0.00 | 0.00 | 0.00 | 56 | 1005.0 |
| 20260505055817 | 62 | 186 | 2.6 | 4.3 | 0.00 | 0.00 | 0.00 | 56 | 1004.7 |
| 20260505055314 | 62 | 215 | 1.7 | 2.6 | 0.00 | 0.00 | 0.00 | 56 | 1004.8 |
| 20260505054812 | 61 | 141 | 1.7 | 2.6 | 0.00 | 0.00 | 0.00 | 58 | 1004.9 |
| 20260505054308 | 60 | 304 | 1.7 | 2.6 | 0.00 | 0.00 | 0.00 | 59 | 1005.0 |
| 20260505053807 | 61 | 198 | 1.7 | 2.6 | 0.00 | 0.00 | 0.00 | 58 | 1005.1 |
| 20260505053303 | 60 | 179 | 2.6 | 2.6 | 0.00 | 0.00 | 0.00 | 58 | 1004.9 |
| 20260505052800 | 61 | 223 | 0.9 | 1.7 | 0.00 | 0.00 | 0.00 | 57 | 1005.0 |
| 20260505052257 | 61 | 212 | 2.6 | 3.5 | 0.00 | 0.00 | 0.00 | 56 | 1004.8 |
| 20260505051754 | 62 | 265 | 2.6 | 2.6 | 0.00 | 0.00 | 0.00 | 55 | 1005.0 |
| 20260505051252 | 62 | 336 | 1.7 | 3.5 | 0.00 | 0.00 | 0.00 | 54 | 1004.9 |
| 20260505050750 | 63 | 204 | 2.6 | 8.7 | 0.00 | 0.00 | 0.00 | 53 | 1004.8 |
| 20260505050248 | 61 | 236 | 6.1 | 7.0 | 0.00 | 0.00 | 0.00 | 55 | 1005.0 |
| 20260505041718 | 61 | 264 | 1.7 | 3.5 | 0.00 | 0.00 | 0.00 | 57 | 1004.8 |
| 20260505041215 | 62 | 20 | 1.7 | 1.7 | 0.00 | 0.00 | 0.00 | 55 | 1004.9 |
| 20260505040712 | 62 | 139 | 0.9 | 2.6 | 0.00 | 0.00 | 0.00 | 54 | 1004.7 |
| 20260505040209 | 62 | 105 | 0.9 | 3.5 | 0.00 | 0.00 | 0.00 | 54 | 1004.9 |
| 20260505035706 | 62 | 155 | 0.9 | 3.5 | 0.00 | 0.00 | 0.00 | 53 | 1004.8 |
| 20260505035202 | 62 | 245 | 3.5 | 3.5 | 0.00 | 0.00 | 0.00 | 53 | 1004.7 |
| 20260505034658 | 63 | 243 | 2.6 | 2.6 | 0.00 | 0.00 | 0.00 | 53 | 1004.6 |
| 20260505034156 | 63 | 188 | 1.7 | 3.5 | 0.00 | 0.00 | 0.00 | 52 | 1004.6 |
| 20260505033652 | 62 | 206 | 5.2 | 5.2 | 0.00 | 0.00 | 0.00 | 52 | 1004.7 |
| 20260505033151 | 63 | 189 | 1.7 | 4.3 | 0.00 | 0.00 | 0.00 | 52 | 1004.8 |
| 20260505032648 | 63 | 229 | 5.2 | 5.2 | 0.00 | 0.00 | 0.00 | 51 | 1004.8 |
| 20260505032144 | 63 | 267 | 5.2 | 5.2 | 0.00 | 0.00 | 0.00 | 51 | 1004.7 |
| 20260505031642 | 64 | 233 | 1.7 | 9.6 | 0.00 | 0.00 | 0.00 | 50 | 1004.8 |
| 20260505031137 | 63 | 188 | 3.5 | 4.3 | 0.00 | 0.00 | 0.00 | 51 | 1004.8 |
| 20260505030635 | 64 | 85 | 1.7 | 10.4 | 0.00 | 0.00 | 0.00 | 50 | 1004.8 |
| 20260505030130 | 64 | 97 | 3.5 | 7.8 | 0.00 | 0.00 | 0.00 | 50 | 1004.9 |
| 20260505025626 | 64 | 241 | 3.5 | 3.5 | 0.00 | 0.00 | 0.00 | 50 | 1004.8 |
| 20260505025125 | 64 | 297 | 2.6 | 7.0 | 0.00 | 0.00 | 0.00 | 49 | 1004.8 |
| 20260505024622 | 64 | 7 | 1.7 | 5.2 | 0.00 | 0.00 | 0.00 | 50 | 1004.6 |
| 20260505024119 | 64 | 117 | 0.0 | 4.3 | 0.00 | 0.00 | 0.00 | 49 | 1005.0 |
| 20260505023617 | 64 | 181 | 1.7 | 5.2 | 0.00 | 0.00 | 0.00 | 49 | 1005.1 |
| 20260505023114 | 64 | 261 | 1.7 | 3.5 | 0.00 | 0.00 | 0.00 | 49 | 1004.8 |
| 20260505022611 | 64 | 289 | 1.7 | 6.1 | 0.00 | 0.00 | 0.00 | 48 | 1005.0 |
| 20260505022108 | 64 | 297 | 3.5 | 8.7 | 0.00 | 0.00 | 0.00 | 48 | 1005.1 |
| 20260505021605 | 64 | 266 | 2.6 | 3.5 | 0.00 | 0.00 | 0.00 | 49 | 1005.1 |
| 20260505021102 | 64 | 259 | 1.7 | 3.5 | 0.00 | 0.00 | 0.00 | 48 | 1005.1 |
| 20260505020602 | 65 | 162 | 2.6 | 5.2 | 0.00 | 0.00 | 0.00 | 48 | 1005.0 |
| 20260505020059 | 65 | 189 | 0.9 | 4.3 | 0.00 | 0.00 | 0.00 | 47 | 1005.0 |
| 20260505015556 | 64 | 239 | 1.7 | 3.5 | 0.00 | 0.00 | 0.00 | 47 | 1005.0 |
| 20260505015053 | 64 | 265 | 1.7 | 5.2 | 0.00 | 0.00 | 0.00 | 47 | 1004.8 |
| 20260505014549 | 64 | 200 | 2.6 | 4.3 | 0.00 | 0.00 | 0.00 | 47 | 1004.9 |
| 20260505014047 | 64 | 162 | 2.6 | 4.3 | 0.00 | 0.00 | 0.00 | 47 | 1004.8 |
| 20260505013543 | 65 | 236 | 0.9 | 6.1 | 0.00 | 0.00 | 0.00 | 47 | 1004.9 |
| 20260505013041 | 64 | 164 | 1.7 | 3.5 | 0.00 | 0.00 | 0.00 | 47 | 1004.5 |
| 20260505012539 | 65 | 220 | 1.7 | 4.3 | 0.00 | 0.00 | 0.00 | 47 | 1004.5 |
| 20260505012036 | 64 | 247 | 2.6 | 3.5 | 0.00 | 0.00 | 0.00 | 47 | 1004.6 |
| 20260505011537 | 65 | 152 | 1.7 | 7.0 | 0.00 | 0.00 | 0.00 | 47 | 1004.6 |
| 20260505011034 | 65 | 199 | 4.3 | 6.1 | 0.00 | 0.00 | 0.00 | 46 | 1004.8 |
| 20260505010529 | 64 | 179 | 1.7 | 2.6 | 0.00 | 0.00 | 0.00 | 48 | 1004.4 |
| 20260505010026 | 64 | 234 | 1.7 | 2.6 | 0.00 | 0.00 | 0.00 | 48 | 1004.6 |
| 20260505005523 | 65 | 267 | 1.7 | 3.5 | 0.00 | 0.00 | 0.00 | 47 | 1004.5 |
| 20260505005020 | 65 | 213 | 0.9 | 5.2 | 0.00 | 0.00 | 0.00 | 46 | 1004.3 |
| 20260505004517 | 66 | 167 | 1.7 | 4.3 | 0.00 | 0.00 | 0.00 | 47 | 1004.4 |
| 20260505004014 | 66 | 262 | 5.2 | 5.2 | 0.00 | 0.00 | 0.00 | 44 | 1004.2 |
| 20260505003511 | 66 | 153 | 0.9 | 4.3 | 0.00 | 0.00 | 0.00 | 45 | 1004.2 |
| 20260505003008 | 67 | 262 | 4.3 | 5.2 | 0.00 | 0.00 | 0.00 | 44 | 1004.4 |
| 20260505002503 | 67 | 220 | 1.7 | 3.5 | 0.00 | 0.00 | 0.00 | 44 | 1004.4 |
| 20260505002002 | 67 | 73 | 1.7 | 4.3 | 0.00 | 0.00 | 0.00 | 44 | 1004.2 |
| 20260505001459 | 67 | 170 | 0.0 | 5.2 | 0.00 | 0.00 | 0.00 | 43 | 1004.2 |
| 20260505000956 | 67 | 98 | 0.9 | 3.5 | 0.00 | 0.00 | 0.00 | 43 | 1004.0 |
| 20260505000454 | 67 | 202 | 2.6 | 6.1 | 0.00 | 0.00 | 0.00 | 43 | 1004.1 |
| 20260504235951 | 67 | 96 | 1.7 | 5.2 | 0.00 | 0.00 | 0.00 | 43 | 1004.0 |
| 20260504235448 | 67 | 188 | 0.9 | 4.3 | 0.00 | 0.00 | 0.00 | 42 | 1004.1 |
| 20260504234944 | 68 | 51 | 2.6 | 5.2 | 0.00 | 0.00 | 0.00 | 42 | 1004.0 |
| 20260504234441 | 68 | 246 | 2.6 | 7.0 | 0.00 | 0.00 | 0.00 | 41 | 1003.8 |
| 20260504233938 | 68 | 96 | 0.9 | 7.0 | 0.00 | 0.00 | 0.00 | 41 | 1003.9 |
| 20260504233434 | 69 | 316 | 0.9 | 6.1 | 0.00 | 0.00 | 0.00 | 41 | 1004.0 |
| 20260504232931 | 69 | 154 | 2.6 | 10.4 | 0.00 | 0.00 | 0.00 | 40 | 1003.8 |
| 20260504232428 | 69 | 229 | 7.0 | 11.3 | 0.00 | 0.00 | 0.00 | 39 | 1003.8 |
| 20260504231925 | 70 | 173 | 2.6 | 14.8 | 0.00 | 0.00 | 0.00 | 38 | 1003.7 |
| 20260504231421 | 70 | 209 | 5.2 | 9.6 | 0.00 | 0.00 | 0.00 | 38 | 1003.9 |
| 20260504230917 | 70 | 192 | 3.5 | 4.3 | 0.00 | 0.00 | 0.00 | 39 | 1003.8 |
| 20260504230415 | 70 | 229 | 0.9 | 4.3 | 0.00 | 0.00 | 0.00 | 39 | 1003.4 |
| 20260504225914 | 70 | 249 | 4.3 | 4.3 | 0.00 | 0.00 | 0.00 | 38 | 1003.3 |
| 20260504225410 | 71 | 329 | 1.7 | 2.6 | 0.00 | 0.00 | 0.00 | 38 | 1003.5 |
| 20260504224907 | 71 | 138 | 2.6 | 7.0 | 0.00 | 0.00 | 0.00 | 39 | 1003.5 |
| 20260504224404 | 71 | 252 | 2.6 | 3.5 | 0.00 | 0.00 | 0.00 | 38 | 1003.5 |
| 20260504223901 | 71 | 146 | 8.7 | 8.7 | 0.00 | 0.00 | 0.00 | 37 | 1003.7 |
| 20260504223356 | 71 | 158 | 1.7 | 7.8 | 0.00 | 0.00 | 0.00 | 37 | 1003.5 |
| 20260504222852 | 72 | 216 | 8.7 | 10.4 | 0.00 | 0.00 | 0.00 | 36 | 1003.7 |
| 20260504222349 | 72 | 165 | 2.6 | 11.3 | 0.00 | 0.00 | 0.00 | 38 | 1003.4 |
| 20260504221848 | 74 | 128 | 1.7 | 5.2 | 0.00 | 0.00 | 0.00 | 34 | 1003.4 |